[[{"header":{"parameterUnit":"m.s-1","parameterCategory":1,"la1":30.2991,"la2":30.254,"lo1":-89.0895,"lo2":-89.0444,"dy":0.0017,"dx":0.0017,"nx":28,"ny":28,"refTime":"2025-07-04T09:00:00:Z","depth":0,"parameterNumber":2,"parameterNumberName":"U-component_of_WINDS"},"data":[0,0,0,0,0,0,0,0,0,0,0,0,0,0,0,0,0,0,0,0,0,0,0,0,0,0,0,0,0,0,0,0,0,0,0,0,0,0,0,0,0,0,0,0,0,0,0,0,0,0,0,0,0,0,0,0,0,0,1.8158,1.8159,0,1.8291,1.8293,1.8294,1.8321,1.832,1.8319,1.8318,1.8454,1.8458,1.8463,0,0,0,0,0,0,0,0,0,0,0,0,0,1.7924,1.7929,1.8157,1.8159,1.8161,1.8291,1.8293,1.8295,1.8321,1.832,1.8319,1.8318,1.8452,1.8458,1.8463,0,0,0,0,0,0,0,0,0,0,0,0,0,1.8039,1.793,1.8157,1.819,1.8194,1.8291,1.8293,1.8295,1.8321,1.832,1.8318,1.8317,1.8451,1.8457,1.8464,1.8537,0,0,1.8485,1.8488,0,0,0,0,0,0,0,0,1.8032,1.8047,1.8183,1.8188,1.8193,1.8288,1.8261,1.8376,1.8322,1.8273,1.8318,1.8316,1.84,1.8411,1.8439,1.8544,1.855,1.8486,1.849,1.8493,1.8495,0,0,0,0,0,0,0,1.8024,1.8041,1.821,1.8185,1.8191,1.8197,1.8212,1.8283,1.8343,1.8277,1.8279,1.8295,1.8402,1.8433,1.8443,1.8552,1.8485,1.8492,1.8496,1.8498,1.8723,1.8725,0,0,0,0,0,0,1.8011,1.8035,1.8206,1.8214,1.8107,1.8203,1.8219,1.8259,1.8343,1.8354,1.8296,1.8296,1.8422,1.8435,1.8447,1.8539,1.8493,1.8499,1.8503,1.8721,1.8723,1.8725,0,0,0,0,0,0,1.8005,1.8026,1.8201,1.8125,1.8148,1.8209,1.8253,1.8262,1.8293,1.8357,1.8368,1.8316,1.8421,1.8438,1.8515,1.8544,1.8502,1.8508,1.8719,1.8722,1.8724,1.8721,0,0,0,0,0,0,1.7999,1.8024,1.8052,1.8126,1.8152,1.8266,1.8255,1.8266,1.8305,1.8305,1.8379,1.8389,1.8421,1.8504,1.8522,1.8552,1.8514,1.8716,1.872,1.8723,1.8719,1.8724,1.8728,0,0,0,0,0,1.799,1.8046,1.8054,1.8074,1.8189,1.8268,1.8283,1.8318,1.8307,1.8336,1.8377,1.8387,1.8538,1.8512,1.8532,1.8565,1.8715,1.8719,1.8723,1.8717,1.8723,1.8728,0,0,0,0,0,0,1.7974,1.8056,1.8065,1.8147,1.82,1.8272,1.831,1.8323,1.838,1.8379,1.842,1.8436,1.8511,1.8546,1.8516,1.864,1.8626,1.8634,1.8615,1.862,1.8625,1.8614,1.852,0,0,0,0,0,1.798,1.8037,1.8106,1.8171,1.8197,1.8249,1.8284,1.8307,1.8364,1.8387,1.8434,1.8488,1.8548,1.8586,1.8645,1.8725,1.8741,1.8757,1.8761,1.8765,1.8771,1.8816,1.8824,1.8739,1.8739,1.8739,0,0,1.7993,1.8045,1.8078,1.8169,1.8213,1.8271,1.8268,1.8329,1.8373,1.8396,1.8471,1.8508,1.8571,1.865,1.8687,1.8681,1.8798,1.877,1.8772,1.8777,1.8821,1.8829,1.8836,1.8742,1.8741,1.8741,0,0,1.8045,1.8091,1.815,1.8194,1.8261,1.8295,1.8309,1.8379,1.8404,1.8481,1.85,1.8552,1.8654,1.8698,1.8734,1.8804,1.8815,1.8822,1.8844,1.8887,1.8893,1.8899,1.8924,1.8932,1.8828,1.8828,1.8828,0,1.8052,1.8141,1.8178,1.8239,1.8278,1.8303,1.8363,1.8404,1.8486,1.8512,1.8505,1.8633,1.8678,1.8767,1.8784,1.8813,1.883,1.8813,1.8889,1.8896,1.8902,1.8926,1.8935,1.8828,1.8828,1.8828,1.8828,0,1.8146,1.8208,1.8247,1.8326,1.837,1.843,1.8476,1.8516,1.8535,1.857,1.8647,1.8702,1.8771,1.8794,1.8814,1.8887,1.8881,1.8881,1.8867,1.891,1.8933,1.8942,1.8829,1.8829,1.8829,1.8829,0,0,1.8192,1.8292,1.8305,1.8342,1.8417,1.8465,1.8526,1.8595,1.8628,1.8684,1.8736,1.8822,1.8822,1.8863,1.8887,1.8925,1.8976,1.8921,1.8923,1.8929,1.906,1.9059,1.9069,1.8984,1.8986,1.8988,1.9054,0,1.8254,1.8364,1.8399,1.8491,1.8547,1.8571,1.8625,1.8676,1.871,1.8763,1.8801,1.8861,1.8857,1.8882,1.8921,1.8962,1.9003,1.8958,1.9033,1.9035,1.9015,1.9081,1.908,1.914,1.9063,1.9065,1.9066,0,1.834,1.8398,1.8495,1.8563,1.8588,1.8636,1.8701,1.8752,1.8811,1.8833,1.8879,1.89,1.8964,1.8947,1.9036,1.9004,1.9037,1.9062,1.9065,1.9073,1.9052,1.909,1.916,1.9169,1.9081,1.908,1.9079,0,1.8363,1.8465,1.8537,1.8567,1.8648,1.8681,1.8716,1.8774,1.8813,1.887,1.8896,1.896,1.8995,1.9044,1.9082,1.9066,1.9167,1.9153,1.9187,1.9186,1.9207,1.9205,1.9283,1.9229,1.9229,1.9229,1.9228,0,1.8428,1.8487,1.8548,1.8592,1.8658,1.8698,1.8762,1.8799,1.885,1.8901,1.8926,1.8973,1.9021,1.9074,1.9104,1.9173,1.9189,1.9208,1.9216,1.9206,1.9203,1.9228,1.9224,1.9231,1.9231,1.923,1.923,0,1.8465,1.8509,1.8588,1.8659,1.8678,1.8723,1.8784,1.8827,1.8862,1.8926,1.8944,1.8999,1.9063,1.9106,1.9188,1.9209,1.9283,1.929,1.9263,1.9267,1.9298,1.9294,1.9394,1.9408,1.9345,1.9345,1.9346,0,1.8503,1.8549,1.8624,1.866,1.8696,1.8754,1.8794,1.8835,1.8875,1.8946,1.8981,1.9047,1.9102,1.9203,1.9251,1.9314,1.9321,1.9352,1.9331,1.932,1.9321,1.9318,1.9322,1.9355,1.9355,1.9356,1.9356,0,1.8566,1.8586,1.8642,1.8707,1.8753,1.8806,1.8859,1.8887,1.8937,1.8981,1.9047,1.909,1.9174,1.9239,1.9306,1.9342,1.9358,1.9363,1.9374,1.9364,1.9346,1.9356,1.9272,1.936,1.936,1.9359,1.9359,1.9359,1.8605,1.8646,1.8706,1.8768,1.8812,1.8861,1.8905,1.8945,1.9001,1.9073,1.9094,1.9162,1.9221,1.9313,1.935,1.9404,1.9401,1.9417,1.9421,1.9424,1.9424,1.9338,1.9417,1.9417,1.9417,1.9417,1.9416,0,1.8669,1.8708,1.8765,1.8838,1.8887,1.8897,1.8956,1.8996,1.9056,1.9109,1.9163,1.9238,1.9302,1.9354,1.9419,1.9452,1.9461,1.9468,1.9466,1.9474,1.9423,1.9407,1.946,1.946,1.946,1.946,1.946,1.946,1.8708,1.8778,1.8804,1.8897,1.8936,1.9004,1.9036,1.9081,1.9123,1.9207,1.9259,1.9293,1.9346,1.9415,1.9473,1.9487,1.951,1.9515,1.953,1.9482,1.9477,1.9472,1.9457,1.952,1.952,1.9576,1.9576,1.9577]},{"header":{"parameterUnit":"m.s-1","parameterCategory":1,"la1":30.2991,"la2":30.254,"lo1":-89.0895,"lo2":-89.0444,"dy":0.0017,"dx":0.0017,"nx":28,"ny":28,"refTime":"2025-07-04T09:00:00:Z","depth":0,"parameterNumber":3,"parameterNumberName":"V-component_of_WINDS"},"data":[0,0,0,0,0,0,0,0,0,0,0,0,0,0,0,0,0,0,0,0,0,0,0,0,0,0,0,0,0,0,0,0,0,0,0,0,0,0,0,0,0,0,0,0,0,0,0,0,0,0,0,0,0,0,0,0,0,0,-1.021,-1.021,0,-1.0199,-1.0199,-1.0199,-1.0198,-1.0198,-1.0198,-1.0198,-1.0186,-1.0186,-1.0185,0,0,0,0,0,0,0,0,0,0,0,0,0,-1.0228,-1.0228,-1.021,-1.021,-1.0209,-1.0199,-1.0199,-1.0199,-1.0198,-1.0198,-1.0198,-1.0198,-1.0186,-1.0186,-1.0185,0,0,0,0,0,0,0,0,0,0,0,0,0,-1.0219,-1.0228,-1.021,-1.0208,-1.0207,-1.0199,-1.0199,-1.0199,-1.0198,-1.0198,-1.0198,-1.0198,-1.0186,-1.0186,-1.0185,-1.0178,0,0,-1.0183,-1.0183,0,0,0,0,0,0,0,0,-1.022,-1.0218,-1.0208,-1.0208,-1.0207,-1.02,-1.0201,-1.0192,-1.0198,-1.0201,-1.0198,-1.0198,-1.019,-1.0189,-1.0187,-1.0177,-1.0177,-1.0183,-1.0183,-1.0182,-1.0182,0,0,0,0,0,0,0,-1.022,-1.0219,-1.0205,-1.0208,-1.0208,-1.0207,-1.0206,-1.0199,-1.0195,-1.0201,-1.0201,-1.02,-1.019,-1.0188,-1.0187,-1.0176,-1.0183,-1.0183,-1.0182,-1.0182,-1.016,-1.0159,0,0,0,0,0,0,-1.0221,-1.0219,-1.0206,-1.0205,-1.0214,-1.0207,-1.0205,-1.0202,-1.0195,-1.0194,-1.02,-1.02,-1.0189,-1.0188,-1.0186,-1.0177,-1.0182,-1.0182,-1.0181,-1.016,-1.016,-1.0159,0,0,0,0,0,0,-1.0222,-1.022,-1.0206,-1.0212,-1.021,-1.0206,-1.0203,-1.0202,-1.0199,-1.0194,-1.0193,-1.0198,-1.0189,-1.0187,-1.018,-1.0177,-1.0182,-1.0181,-1.016,-1.016,-1.0159,-1.0158,0,0,0,0,0,0,-1.0222,-1.022,-1.0218,-1.0212,-1.021,-1.02,-1.0202,-1.0202,-1.0198,-1.0198,-1.0192,-1.0191,-1.0189,-1.0181,-1.0179,-1.0176,-1.018,-1.016,-1.016,-1.016,-1.0158,-1.0158,-1.0157,0,0,0,0,0,-1.0223,-1.0217,-1.0217,-1.0216,-1.0207,-1.02,-1.0199,-1.0196,-1.0198,-1.0195,-1.0192,-1.0191,-1.0177,-1.018,-1.0178,-1.0175,-1.0161,-1.016,-1.016,-1.0159,-1.0158,-1.0157,0,0,0,0,0,0,-1.0222,-1.0217,-1.0217,-1.0209,-1.0205,-1.02,-1.0196,-1.0196,-1.0191,-1.0191,-1.0188,-1.0187,-1.0179,-1.0176,-1.0179,-1.0167,-1.0169,-1.0168,-1.0169,-1.0168,-1.0168,-1.0168,-1.018,0,0,0,0,0,-1.0221,-1.0217,-1.0212,-1.0206,-1.0204,-1.02,-1.0197,-1.0196,-1.0191,-1.019,-1.0186,-1.0181,-1.0175,-1.0172,-1.0166,-1.0158,-1.0157,-1.0155,-1.0154,-1.0154,-1.0153,-1.0148,-1.0147,-1.0158,-1.0158,-1.0158,0,0,-1.0219,-1.0216,-1.0213,-1.0206,-1.0202,-1.0197,-1.0199,-1.0193,-1.0189,-1.0189,-1.0181,-1.0178,-1.0173,-1.0165,-1.0161,-1.0162,-1.015,-1.0153,-1.0153,-1.0152,-1.0147,-1.0146,-1.0146,-1.0158,-1.0158,-1.0158,0,0,-1.0213,-1.021,-1.0204,-1.0201,-1.0196,-1.0194,-1.0192,-1.0187,-1.0185,-1.0178,-1.0177,-1.0172,-1.0163,-1.0159,-1.0156,-1.0148,-1.0147,-1.0146,-1.0143,-1.0138,-1.0138,-1.0137,-1.0134,-1.0133,-1.0146,-1.0146,-1.0146,0,-1.021,-1.0203,-1.0201,-1.0196,-1.0193,-1.0192,-1.0186,-1.0183,-1.0177,-1.0174,-1.0175,-1.0164,-1.016,-1.0151,-1.0149,-1.0147,-1.0145,-1.0147,-1.0138,-1.0137,-1.0136,-1.0133,-1.0132,-1.0146,-1.0146,-1.0146,-1.0146,0,-1.02,-1.0195,-1.0191,-1.0185,-1.0182,-1.0176,-1.0173,-1.017,-1.0169,-1.0166,-1.0159,-1.0155,-1.0148,-1.0146,-1.0145,-1.0137,-1.0138,-1.0139,-1.0141,-1.0135,-1.0132,-1.0131,-1.0145,-1.0145,-1.0145,-1.0145,0,0,-1.0192,-1.0186,-1.0184,-1.0182,-1.0176,-1.0172,-1.0166,-1.0161,-1.0157,-1.0153,-1.0148,-1.014,-1.0141,-1.0137,-1.0136,-1.0132,-1.0125,-1.0133,-1.0133,-1.0131,-1.0116,-1.0115,-1.0114,-1.0125,-1.0125,-1.0125,-1.0116,0,-1.0185,-1.0175,-1.0174,-1.0165,-1.016,-1.0159,-1.0154,-1.015,-1.0148,-1.0143,-1.014,-1.0135,-1.0136,-1.0134,-1.013,-1.0127,-1.0122,-1.0128,-1.012,-1.012,-1.0121,-1.0112,-1.0111,-1.0103,-1.0115,-1.0115,-1.0115,0,-1.0175,-1.017,-1.0161,-1.0156,-1.0154,-1.015,-1.0144,-1.014,-1.0135,-1.0134,-1.013,-1.0129,-1.0122,-1.0125,-1.0116,-1.012,-1.0117,-1.0115,-1.0115,-1.0113,-1.0116,-1.011,-1.01,-1.0099,-1.0113,-1.0113,-1.0113,0,-1.0169,-1.0161,-1.0154,-1.0152,-1.0146,-1.0143,-1.0141,-1.0136,-1.0133,-1.0128,-1.0126,-1.012,-1.0117,-1.0113,-1.011,-1.0112,-1.0101,-1.0104,-1.0099,-1.0099,-1.0096,-1.0096,-1.0086,-1.0095,-1.0095,-1.0095,-1.0095,0,-1.016,-1.0155,-1.0152,-1.0148,-1.0141,-1.0139,-1.0133,-1.013,-1.0126,-1.0122,-1.0121,-1.0116,-1.0114,-1.0108,-1.0106,-1.0099,-1.0098,-1.0096,-1.0096,-1.0096,-1.0096,-1.0093,-1.0093,-1.0095,-1.0095,-1.0095,-1.0095,0,-1.0153,-1.0151,-1.0143,-1.0139,-1.0138,-1.0133,-1.0129,-1.0125,-1.0123,-1.0116,-1.0115,-1.0111,-1.0105,-1.0103,-1.0095,-1.0094,-1.0085,-1.0085,-1.0087,-1.0086,-1.0082,-1.0082,-1.0068,-1.0066,-1.0078,-1.0078,-1.0078,0,-1.0147,-1.0143,-1.0138,-1.0135,-1.0132,-1.0127,-1.0124,-1.0122,-1.0118,-1.0113,-1.0109,-1.0103,-1.0098,-1.0089,-1.0085,-1.0079,-1.0079,-1.0075,-1.0078,-1.0078,-1.0078,-1.0078,-1.0078,-1.0074,-1.0074,-1.0073,-1.0073,0,-1.0137,-1.0136,-1.0131,-1.0126,-1.0122,-1.0118,-1.0114,-1.0112,-1.0109,-1.0105,-1.0099,-1.0095,-1.0088,-1.0082,-1.0076,-1.0073,-1.0073,-1.0073,-1.0071,-1.0071,-1.0072,-1.0071,-1.0084,-1.0073,-1.0073,-1.0073,-1.0073,-1.0073,-1.013,-1.0126,-1.0122,-1.0116,-1.0113,-1.0109,-1.0105,-1.0103,-1.0098,-1.0092,-1.0091,-1.0085,-1.008,-1.0072,-1.0069,-1.0064,-1.0065,-1.0063,-1.0062,-1.0061,-1.0061,-1.0073,-1.0063,-1.0063,-1.0063,-1.0063,-1.0063,0,-1.0119,-1.0116,-1.0112,-1.0106,-1.0102,-1.0103,-1.0098,-1.0095,-1.0089,-1.0085,-1.008,-1.0073,-1.0067,-1.0064,-1.0058,-1.0054,-1.0054,-1.0053,-1.0052,-1.0052,-1.006,-1.0062,-1.0053,-1.0053,-1.0053,-1.0053,-1.0053,-1.0053,-1.0113,-1.0106,-1.0105,-1.0096,-1.0094,-1.0087,-1.0085,-1.0081,-1.0078,-1.007,-1.0066,-1.0064,-1.006,-1.0053,-1.0048,-1.0047,-1.0045,-1.0043,-1.0042,-1.005,-1.0051,-1.0052,-1.0054,-1.0043,-1.0043,-1.0034,-1.0034,-1.0034]}]]